Current Weather Conditions: station 63115

sailwx.info

Last reported at 2015-Jan-26 23:09 UTC.
Time now 2015-Jan-31 17:45 UTC

Location: N 61°36' E 001°18'.
View on Google Maps.

See reports from other nearby stations

  
Tides and Currents Weather Stations Pressure Air Temp Water Temp Dewpoint Dewpoint Depression Visibility Wind Speed Wind Dir Waves Ship Positions
date/time (UTC)wind fromknots sea level pressurealtimeterstation pressurevisibilityair tempwater tempwave heightnotes
2015-Jan-31 16:00 360 12 27.0 4.3 4.6
2015-Jan-31 15:00 010 10 27.0 4.2 4.1
2015-Jan-31 14:00 020 9 5.4 4.0 4.2
2015-Jan-31 13:00 020 7 27.0 4.6 4.3
2015-Jan-31 12:00 030 6 10.8 5.2 4.4
2015-Jan-31 11:00 040 8 10.8 5.6 4.8
2015-Jan-31 10:00 050 11 10.8 6.4 4.4
2015-Jan-31 09:00 040 11 10.8 6.2 4.8
2015-Jan-31 08:00 050 13 27.0 5.5 4.8
2015-Jan-31 07:00 060 14 27.0 4.9 4.9
2015-Jan-31 06:00 060 12 27.0 5.0 4.7
2015-Jan-31 05:00 070 11 27.0 4.9 5.4
2015-Jan-31 04:00 070 8 10.8 5.4 5.2
2015-Jan-31 03:00 060 8 10.8 5.5 5.2
2015-Jan-31 02:00 040 7 10.8 6.0 4.7
2015-Jan-31 01:00 050 9 27.0 6.7 5.3
2015-Jan-31 00:00 050 10 10.8 7.0 5.4
2015-Jan-30 23:00 040 11 10.8 6.0 5.2
2015-Jan-30 22:00 040 10 10.8 6.2 5.4
2015-Jan-30 21:00 020 13 5.4 3.5 5.0
2015-Jan-30 20:00 020 16 10.8 3.6 5.8
2015-Jan-30 19:00 010 20 5.4 2.7 5.5
2015-Jan-30 18:00 020 26 5.4 2.6 5.8
2015-Jan-30 17:00 020 18 10.8 3.3 5.9
2015-Jan-30 16:00 020 27 10.8 3.0 5.3
2015-Jan-30 15:00 010 26 10.8 4.4 6.0
2015-Jan-30 14:00 360 20 10.8 5.2 6.3
2015-Jan-30 13:00 360 24 10.8 5.4 5.8
2015-Jan-30 12:00 010 23 10.8 5.6 5.9
2015-Jan-30 11:00 360 23 10.8 4.9 6.0
2015-Jan-30 10:00 010 22 27.0 4.8 5.3
2015-Jan-30 09:00 020 19 27.0 4.8 6.0
2015-Jan-30 08:00 010 11 27.0 5.0 5.7
2015-Jan-30 07:00 360 12 27.0 4.6 6.0
2015-Jan-30 06:00 350 13 10.8 4.7 6.3
2015-Jan-30 05:00 350 14 27.0 4.8 6.2
2015-Jan-30 04:00 340 16 10.8 4.6 5.8
2015-Jan-30 03:00 340 19 5.4 4.8 5.6
2015-Jan-30 02:00 350 18 10.8 4.8 5.8
2015-Jan-30 01:00 360 18 10.8 5.1 5.7
2015-Jan-30 00:00 350 16 27.0 5.2 5.6
2015-Jan-29 23:00 350 12 5.4 5.3 5.8
2015-Jan-29 22:00 350 11 27.0 5.1 5.8
2015-Jan-29 21:00 360 13 27.0 5.2 5.0
2015-Jan-29 20:00 010 14 27.0 4.9 5.2
2015-Jan-29 19:00 020 14 27.0 5.2 5.1
2015-Jan-29 18:00 050 8 27.0 5.3 5.6
2015-Jan-29 17:00 050 12 5.4 5.4 5.9